Showing default

RAY 1.0, 62627

Orbit data source: Space-Track

RAY 1.0, 62627 is a payload satellite owned by Inversion Space (US) in SSO that was launched on Tue, 14 Jan 2025 UTC via an FALCON 9 launch vehicle from the Air Force Western Test Range (AFWTR). Payload-class satellites include a variety of spacecraft equipped with specific instruments for various scientific and technological missions. These include communications satellites like Starlink; space stations such as the ISS; scientific satellites like the Hubble; Earth observation satellites from companies like Planet Labs, Umbra, and HawkEye 360; GPS; miniature CubeSats for education and research; and military/defense satellites.

Loading next visibility...
Identifier
62627, 2025-009U
Orbit
SSO
Country
Flag of USUS
Related business
Manufacturer
Inversion Space
Mission
Operational Commercial Technology
Bus & Motor
RAY, Unknown motor
Mass
63 kg wet, 32 kg dry
Launch date (UTC)
2025-01-14 (11 months ago)
Launch vehicle
FALCON 9
Launch site
Air Force Western Test Range (AFWTR)
Object type
Payload
Rocket body
Debris
Shape & HBR
Box + Cone, 0.6 m
Radar Cross Section
0.875 m², Medium (>0.1 m² and < 1m²)

Expand to show TLE details & history
Last TLE update: 19 hours ago

TLE from 19 hours ago
0 RAY 1.0
1 62627U 25009U   25342.31226074  .00005943  00000-0  28552-3 0  9996
2 62627  97.4180  59.1118 0008010 215.6548 144.4152 15.19182465 49689
Epoch: 2025-12-08T07:29Z
TLE epoch observation values (Epoch: 2025-12-08T07:29:39.327Z)
Latitude
-0.0001°
Longitude
-130.61515°
Altitude
515.887 km
Speed
7.603 km/s
True Right ascension
03h 56m 26s
True Declination
0° 00' 00"
Sunlit
Object was in full shadow at epoch
Visualization orbit readout
Latitude
Unknown
Longitude
Unknown
Altitude
Unknown
Speed
Unknown
Apparent Right ascension
Unknown
Apparent Declination
Unknown
Sunlit
N/A
Visualization observer readout
Local Sidereal Time
00:29:47
Azimuth
Unknown
Elevation
Unknown
Doppler factor
Unknown
Orbital elements
Apogee altitude
510.791 km
Perigee altitude
499.764 km
Semi-major axis
6,883.415 km
Eccentricity
0.0008
Inclination
97.418°
RAAN
59.1118°
Arg. of periapsis
215.6548°
True anomaly
144.46857°
Mean anomaly
144.4152°
Eccentric anomaly
144.44189°
Mean motion
3.80047 °/min
Orbital period
94.73 mins
BSTAR
0.00028552
Loading maneuver chart data...
Computing Atmospheric mass density...
Loading historical data...
Loading historical data...
Loading historical data...
Loading historical data...
Loading historical data...
Loading historical data...
Loading historical data...

Documentation

Showing up to 5 results
|